PHSCH EHSE-LFMD

Flight info

Callsign PHSCH
Flight time 2h 7m
Altitude 25000
Route KUDAD DCT BATAK DCT ROUSY DCT GILIR DCT VEVAR
Aircraft PC12/L-SDFGRWY/S

Departure

Time 2026-04-29 16:21
Airport Breda International Airport (EHSE)

Arrival

Time 2026-04-29 18:28
Airport Cannes Mandelieu Airport (LFMD)
Time Latitude Longitude Altitude Speed Heading
2026-04-29 15:50 51.55523 4.54991 35 ft 0 kts 37°
2026-04-29 16:02 51.55523 4.54992 35 ft 0 kts 37°
2026-04-29 16:02 51.55521 4.54990 35 ft 1 kts 26°
2026-04-29 16:03 51.55512 4.54990 37 ft 1 kts 351°
2026-04-29 16:03 51.55502 4.54992 36 ft 1 kts 351°
2026-04-29 16:03 51.55492 4.54992 36 ft 2 kts 22°
2026-04-29 16:03 51.55486 4.54984 36 ft 0 kts 65°
2026-04-29 16:18 51.55487 4.54987 35 ft 0 kts 80°
2026-04-29 16:19 51.55466 4.55008 34 ft 8 kts 199°
2026-04-29 16:19 51.55442 4.54930 35 ft 7 kts 248°
2026-04-29 16:19 51.55409 4.54815 36 ft 9 kts 240°
2026-04-29 16:19 51.55365 4.54799 36 ft 10 kts 143°
2026-04-29 16:20 51.55365 4.54842 35 ft 11 kts 68°
2026-04-29 16:20 51.55482 4.55267 31 ft 70 kts 66°
2026-04-29 16:20 51.55720 4.56107 230 ft 93 kts 68°
2026-04-29 16:20 51.56007 4.57214 518 ft 121 kts 71°
2026-04-29 16:21 51.56322 4.58627 900 ft 141 kts 71°
2026-04-29 16:21 51.56894 4.59913 1597 ft 152 kts 38°
2026-04-29 16:21 51.57879 4.60684 2177 ft 163 kts 32°
2026-04-29 16:21 51.58745 4.61964 2280 ft 176 kts 71°
2026-04-29 16:22 51.58922 4.63894 2808 ft 176 kts 92°
2026-04-29 16:22 51.58663 4.65823 3320 ft 177 kts 101°
2026-04-29 16:22 51.58396 4.67743 3831 ft 178 kts 99°
2026-04-29 16:22 51.58168 4.69702 4360 ft 179 kts 99°
2026-04-29 16:23 51.57944 4.71673 4873 ft 179 kts 100°
2026-04-29 16:23 51.57716 4.73657 5378 ft 181 kts 100°
2026-04-29 16:23 51.57443 4.75636 5878 ft 183 kts 107°
2026-04-29 16:23 51.56880 4.77485 6383 ft 187 kts 120°
2026-04-29 16:24 51.56029 4.79090 6885 ft 191 kts 132°
2026-04-29 16:24 51.54921 4.80324 7368 ft 198 kts 146°
2026-04-29 16:24 51.53635 4.81191 7859 ft 202 kts 151°
2026-04-29 16:24 51.52314 4.82071 8230 ft 209 kts 150°
2026-04-29 16:25 51.50951 4.82982 8614 ft 214 kts 150°
2026-04-29 16:25 51.49557 4.83905 9004 ft 219 kts 151°
2026-04-29 16:25 51.48136 4.84843 9397 ft 223 kts 152°
2026-04-29 16:25 51.46692 4.85795 9801 ft 226 kts 153°
2026-04-29 16:26 51.45226 4.86766 10202 ft 229 kts 153°
2026-04-29 16:26 51.43740 4.87746 10560 ft 232 kts 153°
2026-04-29 16:26 51.42248 4.88736 10921 ft 232 kts 152°
2026-04-29 16:26 51.40729 4.89738 11034 ft 245 kts 152°
2026-04-29 16:27 51.39141 4.90785 11028 ft 254 kts 152°
2026-04-29 16:27 51.37492 4.91866 11026 ft 258 kts 152°
2026-04-29 16:27 51.35831 4.92960 11069 ft 258 kts 153°
2026-04-29 16:27 51.34182 4.94039 11269 ft 254 kts 153°
2026-04-29 16:28 51.32558 4.95103 11500 ft 251 kts 153°
2026-04-29 16:28 51.30948 4.96163 11748 ft 250 kts 153°
2026-04-29 16:28 51.29340 4.97219 11991 ft 250 kts 153°
2026-04-29 16:28 51.27727 4.98276 12277 ft 249 kts 153°
2026-04-29 16:29 51.26139 4.99314 12660 ft 245 kts 153°
2026-04-29 16:29 51.24565 5.00345 13034 ft 244 kts 153°
2026-04-29 16:29 51.22995 5.01372 13421 ft 243 kts 153°
2026-04-29 16:29 51.21431 5.02394 13811 ft 243 kts 153°
2026-04-29 16:30 51.19868 5.03415 14194 ft 243 kts 153°
2026-04-29 16:30 51.18306 5.04435 14543 ft 243 kts 153°
2026-04-29 16:30 51.16741 5.05456 14897 ft 243 kts 153°
2026-04-29 16:30 51.15168 5.06480 15249 ft 244 kts 153°
2026-04-29 16:31 51.13589 5.07509 15619 ft 246 kts 153°
2026-04-29 16:31 51.12003 5.08540 15985 ft 247 kts 153°
2026-04-29 16:31 51.10406 5.09579 16356 ft 248 kts 153°
2026-04-29 16:31 51.08823 5.10607 16736 ft 250 kts 153°
2026-04-29 16:32 51.07190 5.11668 17123 ft 251 kts 153°
2026-04-29 16:32 51.05570 5.12718 17511 ft 251 kts 153°
2026-04-29 16:32 51.03969 5.13755 17892 ft 253 kts 153°
2026-04-29 16:32 51.02333 5.14816 18291 ft 255 kts 153°
2026-04-29 16:33 50.99035 5.16948 19027 ft 257 kts 152°
2026-04-29 16:33 50.97372 5.18024 19382 ft 258 kts 152°
2026-04-29 16:33 50.95706 5.19099 19755 ft 259 kts 152°
2026-04-29 16:34 50.94032 5.20178 20111 ft 259 kts 152°
2026-04-29 16:34 50.92360 5.21257 20475 ft 260 kts 152°
2026-04-29 16:34 50.90687 5.22335 20844 ft 260 kts 152°
2026-04-29 16:34 50.89007 5.23416 21218 ft 260 kts 152°
2026-04-29 16:35 50.87326 5.24497 21592 ft 260 kts 152°
2026-04-29 16:35 50.85650 5.25572 21972 ft 260 kts 152°
2026-04-29 16:35 50.83982 5.26643 22363 ft 259 kts 152°
2026-04-29 16:35 50.82317 5.27714 22754 ft 257 kts 152°
2026-04-29 16:36 50.80662 5.28775 23156 ft 256 kts 152°
2026-04-29 16:36 50.79040 5.29814 23545 ft 254 kts 151°
2026-04-29 16:36 50.77402 5.30862 23936 ft 254 kts 151°
2026-04-29 16:36 50.75769 5.31907 24274 ft 253 kts 151°
2026-04-29 16:37 50.74138 5.32951 24629 ft 253 kts 151°
2026-04-29 16:37 50.72500 5.33997 24977 ft 253 kts 151°
2026-04-29 16:37 50.70859 5.35047 25227 ft 258 kts 151°
2026-04-29 16:37 50.69713 5.35783 25240 ft 267 kts 151°
2026-04-29 16:38 50.67376 5.37272 25250 ft 279 kts 152°
2026-04-29 16:38 50.65552 5.38428 25249 ft 284 kts 152°
2026-04-29 16:38 50.63717 5.39591 25250 ft 284 kts 152°
2026-04-29 16:38 50.61893 5.40748 25273 ft 282 kts 152°
2026-04-29 16:39 50.60079 5.41902 25272 ft 281 kts 152°
2026-04-29 16:39 50.58270 5.43052 25272 ft 280 kts 152°
2026-04-29 16:39 50.56464 5.44197 25262 ft 280 kts 152°
2026-04-29 16:39 50.54658 5.45341 25261 ft 280 kts 152°
2026-04-29 16:40 50.52855 5.46482 25263 ft 279 kts 152°
2026-04-29 16:40 50.51050 5.47624 25266 ft 280 kts 152°
2026-04-29 16:40 50.49246 5.48764 25266 ft 280 kts 152°
2026-04-29 16:40 50.47437 5.49907 25266 ft 280 kts 152°
2026-04-29 16:41 50.45627 5.51048 25256 ft 281 kts 152°
2026-04-29 16:41 50.43815 5.52191 25256 ft 281 kts 152°
2026-04-29 16:41 50.42001 5.53333 25256 ft 281 kts 152°
2026-04-29 16:41 50.40192 5.54472 25256 ft 280 kts 152°
2026-04-29 16:42 50.38378 5.55613 25259 ft 281 kts 152°
2026-04-29 16:42 50.36585 5.56739 25254 ft 281 kts 152°
2026-04-29 16:42 50.34744 5.57895 25256 ft 281 kts 152°
2026-04-29 16:42 50.32951 5.59020 25257 ft 282 kts 152°
2026-04-29 16:43 50.31128 5.60163 25255 ft 282 kts 152°
2026-04-29 16:43 50.29307 5.61302 25254 ft 282 kts 152°
2026-04-29 16:43 50.27485 5.62443 25241 ft 283 kts 152°
2026-04-29 16:43 50.25658 5.63585 25243 ft 283 kts 152°
2026-04-29 16:44 50.23831 5.64727 25245 ft 283 kts 152°
2026-04-29 16:44 50.21997 5.65871 25245 ft 283 kts 152°
2026-04-29 16:44 50.20165 5.67013 25246 ft 283 kts 152°
2026-04-29 16:44 50.18334 5.68155 25235 ft 283 kts 152°
2026-04-29 16:45 50.16504 5.69294 25247 ft 283 kts 152°
2026-04-29 16:45 50.14671 5.70434 25247 ft 283 kts 152°
2026-04-29 16:45 50.12864 5.71558 25247 ft 284 kts 152°
2026-04-29 16:45 50.11029 5.72697 25247 ft 284 kts 152°
2026-04-29 16:46 50.09193 5.73837 25238 ft 284 kts 152°
2026-04-29 16:46 50.07361 5.74973 25239 ft 284 kts 152°
2026-04-29 16:46 50.05528 5.76108 25239 ft 284 kts 152°
2026-04-29 16:46 50.03695 5.77243 25238 ft 283 kts 153°
2026-04-29 16:47 50.01864 5.78376 25240 ft 283 kts 153°
2026-04-29 16:47 50.00035 5.79506 25228 ft 283 kts 153°
2026-04-29 16:47 49.98208 5.80634 25228 ft 283 kts 153°
2026-04-29 16:47 49.96379 5.81763 25228 ft 283 kts 153°
2026-04-29 16:48 49.94551 5.82890 25238 ft 283 kts 153°
2026-04-29 16:48 49.92720 5.84018 25239 ft 283 kts 153°
2026-04-29 16:48 49.90888 5.85146 25231 ft 283 kts 153°
2026-04-29 16:48 49.89056 5.86272 25231 ft 283 kts 153°
2026-04-29 16:49 49.87228 5.87395 25232 ft 283 kts 153°
2026-04-29 16:49 49.85392 5.88522 25231 ft 283 kts 153°
2026-04-29 16:49 49.83562 5.89646 25240 ft 283 kts 153°
2026-04-29 16:49 49.81727 5.90771 25228 ft 284 kts 153°
2026-04-29 16:50 49.79887 5.91898 25220 ft 284 kts 153°
2026-04-29 16:50 49.78050 5.93021 25220 ft 284 kts 153°
2026-04-29 16:50 49.76211 5.94146 25220 ft 284 kts 153°
2026-04-29 16:50 49.74393 5.95257 25220 ft 284 kts 153°
2026-04-29 16:51 49.72556 5.96379 25219 ft 284 kts 153°
2026-04-29 16:51 49.70720 5.97499 25220 ft 284 kts 153°
2026-04-29 16:51 49.68882 5.98619 25220 ft 284 kts 153°
2026-04-29 16:51 49.67040 5.99740 25220 ft 284 kts 153°
2026-04-29 16:52 49.65201 6.00859 25219 ft 284 kts 153°
2026-04-29 16:52 49.63363 6.01977 25218 ft 284 kts 153°
2026-04-29 16:52 49.61526 6.03093 25219 ft 284 kts 153°
2026-04-29 16:52 49.59690 6.04207 25218 ft 284 kts 153°
2026-04-29 16:53 49.57852 6.05322 25218 ft 284 kts 153°
2026-04-29 16:53 49.56012 6.06438 25219 ft 284 kts 153°
2026-04-29 16:53 49.54172 6.07551 25218 ft 284 kts 153°
2026-04-29 16:53 49.52330 6.08666 25218 ft 284 kts 153°
2026-04-29 16:54 49.50487 6.09781 25219 ft 284 kts 153°
2026-04-29 16:54 49.48644 6.10883 25218 ft 285 kts 155°
2026-04-29 16:54 49.46686 6.11540 25210 ft 292 kts 170°
2026-04-29 16:54 49.44651 6.11665 25211 ft 293 kts 173°
2026-04-29 16:55 49.42611 6.11766 25212 ft 293 kts 173°
2026-04-29 16:55 49.40568 6.11879 25213 ft 293 kts 173°
2026-04-29 16:55 49.38529 6.11991 25214 ft 293 kts 173°
2026-04-29 16:55 49.36515 6.12100 25211 ft 293 kts 173°
2026-04-29 16:56 49.34474 6.12209 25210 ft 293 kts 173°
2026-04-29 16:56 49.32440 6.12318 25209 ft 292 kts 173°
2026-04-29 16:56 49.30407 6.12428 25208 ft 292 kts 173°
2026-04-29 16:56 49.28373 6.12537 25207 ft 292 kts 173°
2026-04-29 16:57 49.26343 6.12646 25197 ft 292 kts 173°
2026-04-29 16:57 49.24320 6.12753 25198 ft 292 kts 173°
2026-04-29 16:57 49.22281 6.12863 25198 ft 292 kts 173°
2026-04-29 16:57 49.20256 6.12971 25195 ft 292 kts 173°
2026-04-29 16:58 49.18227 6.13079 25191 ft 292 kts 173°
2026-04-29 16:58 49.16196 6.13187 25191 ft 292 kts 173°
2026-04-29 16:58 49.14848 6.13259 25192 ft 292 kts 173°
2026-04-29 16:58 49.12821 6.13367 25192 ft 291 kts 173°
2026-04-29 16:59 49.10805 6.13473 25192 ft 290 kts 173°
2026-04-29 16:59 49.08134 6.13616 25191 ft 289 kts 173°
2026-04-29 16:59 49.06778 6.13688 25190 ft 289 kts 173°
2026-04-29 16:59 49.04772 6.13795 25190 ft 289 kts 173°
2026-04-29 17:00 49.02764 6.13901 25186 ft 288 kts 173°
2026-04-29 17:00 49.00753 6.14009 25187 ft 289 kts 173°
2026-04-29 17:00 48.98739 6.14115 25188 ft 290 kts 173°
2026-04-29 17:00 48.96719 6.14220 25190 ft 291 kts 173°
2026-04-29 17:01 48.94723 6.14326 25194 ft 291 kts 173°
2026-04-29 17:01 48.92702 6.14433 25194 ft 291 kts 173°
2026-04-29 17:01 48.90678 6.14541 25194 ft 290 kts 174°
2026-04-29 17:01 48.88656 6.14647 25193 ft 291 kts 173°
2026-04-29 17:02 48.86637 6.14753 25193 ft 290 kts 174°
2026-04-29 17:02 48.84608 6.14859 25187 ft 291 kts 173°
2026-04-29 17:02 48.82582 6.14966 25166 ft 291 kts 174°
2026-04-29 17:02 48.80555 6.15072 25166 ft 291 kts 173°
2026-04-29 17:03 48.78531 6.15179 25166 ft 291 kts 173°
2026-04-29 17:03 48.76506 6.15285 25163 ft 291 kts 173°
2026-04-29 17:03 48.74505 6.15391 25166 ft 291 kts 174°
2026-04-29 17:03 48.72478 6.15496 25166 ft 291 kts 174°
2026-04-29 17:04 48.70455 6.15601 25167 ft 291 kts 173°
2026-04-29 17:04 48.68426 6.15708 25166 ft 291 kts 174°
2026-04-29 17:04 48.66400 6.15814 25167 ft 291 kts 173°
2026-04-29 17:04 48.64373 6.15920 25167 ft 292 kts 173°
2026-04-29 17:05 48.62340 6.16026 25165 ft 292 kts 173°
2026-04-29 17:05 48.60307 6.16132 25166 ft 292 kts 173°
2026-04-29 17:05 48.58273 6.16238 25167 ft 292 kts 173°
2026-04-29 17:05 48.56250 6.16343 25165 ft 291 kts 173°
2026-04-29 17:06 48.54229 6.16447 25167 ft 290 kts 174°
2026-04-29 17:06 48.52215 6.16552 25167 ft 289 kts 173°
2026-04-29 17:06 48.50202 6.16657 25149 ft 289 kts 174°
2026-04-29 17:06 48.48184 6.16762 25146 ft 290 kts 173°
2026-04-29 17:07 48.46160 6.16867 25145 ft 291 kts 175°
2026-04-29 17:07 48.44133 6.16972 25143 ft 292 kts 174°
2026-04-29 17:07 48.42101 6.17077 25143 ft 292 kts 174°
2026-04-29 17:07 48.40066 6.17183 25140 ft 293 kts 174°
2026-04-29 17:08 48.38028 6.17288 25139 ft 292 kts 175°
2026-04-29 17:08 48.35999 6.17391 25138 ft 292 kts 173°
2026-04-29 17:08 48.33965 6.17497 25140 ft 292 kts 174°
2026-04-29 17:08 48.31929 6.17602 25138 ft 292 kts 174°
2026-04-29 17:09 48.29897 6.17706 25139 ft 293 kts 174°
2026-04-29 17:09 48.27862 6.17811 25139 ft 293 kts 173°
2026-04-29 17:09 48.25817 6.17919 25139 ft 295 kts 178°
2026-04-29 17:09 48.23752 6.18023 25137 ft 299 kts 178°
2026-04-29 17:10 48.21655 6.18129 25142 ft 304 kts 178°
2026-04-29 17:10 48.19564 6.18237 25142 ft 303 kts 178°
2026-04-29 17:10 48.17463 6.18345 25139 ft 299 kts 178°
2026-04-29 17:10 48.15393 6.18451 25131 ft 298 kts 178°
2026-04-29 17:11 48.13317 6.18557 25132 ft 298 kts 178°
2026-04-29 17:11 48.11253 6.18664 25132 ft 296 kts 178°
2026-04-29 17:11 48.09197 6.18769 25133 ft 295 kts 178°
2026-04-29 17:11 48.07124 6.18873 25121 ft 299 kts 178°
2026-04-29 17:12 48.05038 6.18980 25121 ft 299 kts 181°
2026-04-29 17:12 48.02966 6.19087 25120 ft 298 kts 181°
2026-04-29 17:12 48.00897 6.19190 25114 ft 297 kts 181°
2026-04-29 17:12 47.99528 6.19259 25121 ft 296 kts 181°
2026-04-29 17:13 47.96776 6.19401 25110 ft 296 kts 181°
2026-04-29 17:13 47.94717 6.19506 25109 ft 296 kts 181°
2026-04-29 17:13 47.92649 6.19610 25109 ft 296 kts 181°
2026-04-29 17:13 47.90614 6.19713 25109 ft 296 kts 181°
2026-04-29 17:14 47.88555 6.19818 25100 ft 296 kts 181°
2026-04-29 17:14 47.86497 6.19922 25095 ft 296 kts 181°
2026-04-29 17:14 47.84437 6.20026 25094 ft 296 kts 182°
2026-04-29 17:14 47.82374 6.20132 25099 ft 297 kts 182°
2026-04-29 17:15 47.80304 6.20234 25073 ft 299 kts 182°
2026-04-29 17:15 47.78217 6.20339 25075 ft 300 kts 182°
2026-04-29 17:15 47.76129 6.20446 25077 ft 301 kts 182°
2026-04-29 17:15 47.74034 6.20551 25081 ft 301 kts 182°
2026-04-29 17:16 47.71937 6.20657 25081 ft 301 kts 182°
2026-04-29 17:16 47.69842 6.20762 25081 ft 301 kts 182°
2026-04-29 17:16 47.67744 6.20868 25082 ft 301 kts 182°
2026-04-29 17:16 47.65650 6.20973 25084 ft 301 kts 182°
2026-04-29 17:17 47.63552 6.21078 25087 ft 302 kts 182°
2026-04-29 17:17 47.61458 6.21183 25074 ft 301 kts 183°
2026-04-29 17:17 47.59360 6.21288 25075 ft 302 kts 183°
2026-04-29 17:17 47.57260 6.21394 25076 ft 302 kts 183°
2026-04-29 17:18 47.55158 6.21499 25075 ft 302 kts 183°
2026-04-29 17:18 47.53084 6.21602 25073 ft 302 kts 183°
2026-04-29 17:18 47.50983 6.21707 25072 ft 302 kts 183°
2026-04-29 17:18 47.48881 6.21812 25073 ft 302 kts 183°
2026-04-29 17:19 47.46778 6.21917 25074 ft 302 kts 183°
2026-04-29 17:19 47.44676 6.22022 25068 ft 302 kts 183°
2026-04-29 17:19 47.42577 6.22127 25069 ft 302 kts 183°
2026-04-29 17:19 47.40479 6.22231 25068 ft 302 kts 182°
2026-04-29 17:20 47.38380 6.22335 25068 ft 302 kts 182°
2026-04-29 17:20 47.36275 6.22439 25062 ft 302 kts 182°
2026-04-29 17:20 47.34177 6.22544 25062 ft 302 kts 182°
2026-04-29 17:20 47.32074 6.22649 25080 ft 302 kts 183°
2026-04-29 17:21 47.29975 6.22753 25075 ft 302 kts 183°
2026-04-29 17:21 47.27878 6.22856 25076 ft 301 kts 183°
2026-04-29 17:21 47.25784 6.22959 25075 ft 301 kts 183°
2026-04-29 17:21 47.23689 6.23063 25075 ft 301 kts 183°
2026-04-29 17:22 47.21594 6.23166 25051 ft 301 kts 183°
2026-04-29 17:22 47.19501 6.23270 25060 ft 300 kts 183°
2026-04-29 17:22 47.17448 6.23372 25057 ft 298 kts 183°
2026-04-29 17:22 47.15374 6.23474 25056 ft 298 kts 183°
2026-04-29 17:23 47.13301 6.23575 25057 ft 297 kts 183°
2026-04-29 17:23 47.11238 6.23677 25055 ft 297 kts 183°
2026-04-29 17:23 47.09172 6.23779 25056 ft 297 kts 183°
2026-04-29 17:23 47.07104 6.23883 25056 ft 297 kts 182°
2026-04-29 17:24 47.05048 6.24363 25056 ft 301 kts 170°
2026-04-29 17:24 47.03013 6.25109 25068 ft 302 kts 170°
2026-04-29 17:24 47.00967 6.25833 25068 ft 303 kts 170°
2026-04-29 17:24 46.98925 6.26551 25069 ft 302 kts 170°
2026-04-29 17:25 46.96907 6.27269 25070 ft 301 kts 170°
2026-04-29 17:25 46.94869 6.27995 25069 ft 301 kts 170°
2026-04-29 17:25 46.92832 6.28718 25070 ft 301 kts 170°
2026-04-29 17:25 46.90795 6.29439 25069 ft 301 kts 170°
2026-04-29 17:26 46.88764 6.30158 25070 ft 301 kts 170°
2026-04-29 17:26 46.86729 6.30879 25073 ft 301 kts 170°
2026-04-29 17:26 46.84690 6.31599 25072 ft 301 kts 170°
2026-04-29 17:26 46.82650 6.32320 25072 ft 301 kts 170°
2026-04-29 17:27 46.80617 6.33039 25071 ft 301 kts 170°
2026-04-29 17:27 46.78579 6.33757 25071 ft 300 kts 169°
2026-04-29 17:27 46.76560 6.34469 25074 ft 297 kts 169°
2026-04-29 17:27 46.74553 6.35177 25074 ft 297 kts 170°
2026-04-29 17:28 46.72546 6.35883 25071 ft 296 kts 169°
2026-04-29 17:28 46.70545 6.36586 25071 ft 296 kts 170°
2026-04-29 17:28 46.68566 6.37281 25071 ft 297 kts 169°
2026-04-29 17:28 46.66552 6.37988 25074 ft 297 kts 170°
2026-04-29 17:29 46.64536 6.38696 25075 ft 298 kts 169°
2026-04-29 17:29 46.62526 6.39401 25076 ft 298 kts 170°
2026-04-29 17:29 46.60506 6.40108 25077 ft 299 kts 170°
2026-04-29 17:29 46.59138 6.40587 25075 ft 299 kts 170°
2026-04-29 17:30 46.56455 6.41526 25077 ft 300 kts 170°
2026-04-29 17:30 46.54426 6.42236 25079 ft 299 kts 170°
2026-04-29 17:30 46.52404 6.42942 25080 ft 299 kts 170°
2026-04-29 17:30 46.50386 6.43646 25080 ft 299 kts 170°
2026-04-29 17:31 46.48363 6.44352 25083 ft 300 kts 170°
2026-04-29 17:31 46.46330 6.45059 25083 ft 300 kts 170°
2026-04-29 17:31 46.44304 6.45765 25084 ft 299 kts 170°
2026-04-29 17:31 46.42281 6.46470 25083 ft 299 kts 170°
2026-04-29 17:32 46.40256 6.47173 25084 ft 299 kts 170°
2026-04-29 17:32 46.38229 6.47877 25070 ft 299 kts 170°
2026-04-29 17:32 46.36213 6.48578 25070 ft 297 kts 170°
2026-04-29 17:32 46.34235 6.49264 25069 ft 296 kts 170°
2026-04-29 17:33 46.32237 6.49956 25071 ft 295 kts 170°
2026-04-29 17:33 46.30243 6.50647 25072 ft 295 kts 170°
2026-04-29 17:33 46.28248 6.51338 25064 ft 294 kts 170°
2026-04-29 17:33 46.26263 6.52024 25067 ft 294 kts 170°
2026-04-29 17:34 46.24274 6.52712 25064 ft 293 kts 169°
2026-04-29 17:34 46.22292 6.53396 25067 ft 293 kts 169°
2026-04-29 17:34 46.20310 6.54077 25065 ft 293 kts 170°
2026-04-29 17:34 46.18321 6.54765 25072 ft 294 kts 170°
2026-04-29 17:35 46.15664 6.55683 25074 ft 293 kts 170°
2026-04-29 17:35 46.12368 6.56815 25077 ft 293 kts 170°
2026-04-29 17:35 46.10381 6.57498 25076 ft 293 kts 170°
2026-04-29 17:36 46.08397 6.58180 25075 ft 293 kts 170°
2026-04-29 17:36 46.06412 6.58861 25077 ft 293 kts 170°
2026-04-29 17:36 46.04429 6.59542 25077 ft 293 kts 170°
2026-04-29 17:36 46.02464 6.60215 25079 ft 295 kts 170°
2026-04-29 17:37 46.00454 6.60902 25078 ft 297 kts 170°
2026-04-29 17:37 45.98453 6.61588 25080 ft 295 kts 170°
2026-04-29 17:37 45.96457 6.62272 25078 ft 294 kts 170°
2026-04-29 17:37 45.94467 6.62951 25077 ft 293 kts 170°
2026-04-29 17:38 45.92475 6.63631 25074 ft 293 kts 170°
2026-04-29 17:38 45.90496 6.64307 25087 ft 293 kts 170°
2026-04-29 17:38 45.88513 6.64983 25091 ft 292 kts 170°
2026-04-29 17:38 45.86534 6.65657 25091 ft 293 kts 170°
2026-04-29 17:39 45.84547 6.66334 25091 ft 293 kts 170°
2026-04-29 17:39 45.82568 6.67008 25092 ft 293 kts 170°
2026-04-29 17:39 45.80586 6.67682 25090 ft 293 kts 170°
2026-04-29 17:39 45.78603 6.68355 25091 ft 292 kts 170°
2026-04-29 17:40 45.76623 6.69028 25092 ft 293 kts 170°
2026-04-29 17:40 45.74649 6.69698 25250 ft 289 kts 170°
2026-04-29 17:40 45.72695 6.70361 25493 ft 288 kts 170°
2026-04-29 17:40 45.70769 6.71013 25732 ft 289 kts 171°
2026-04-29 17:41 45.68812 6.71675 25976 ft 289 kts 170°
2026-04-29 17:41 45.66854 6.72339 26223 ft 290 kts 171°
2026-04-29 17:41 45.64892 6.73001 26471 ft 290 kts 170°
2026-04-29 17:41 45.62919 6.73667 26738 ft 293 kts 171°
2026-04-29 17:42 45.60926 6.74339 26987 ft 295 kts 171°
2026-04-29 17:42 45.58912 6.75018 27116 ft 301 kts 171°
2026-04-29 17:42 45.56836 6.75715 27118 ft 310 kts 170°
2026-04-29 17:42 45.54732 6.76427 27121 ft 309 kts 170°
2026-04-29 17:43 45.52657 6.77129 27116 ft 305 kts 170°
2026-04-29 17:43 45.50603 6.77819 27110 ft 302 kts 171°
2026-04-29 17:43 45.48564 6.78502 27101 ft 301 kts 171°
2026-04-29 17:43 45.46525 6.79186 27107 ft 301 kts 171°
2026-04-29 17:44 45.44474 6.79873 27116 ft 305 kts 170°
2026-04-29 17:44 45.42397 6.80570 27119 ft 307 kts 171°
2026-04-29 17:44 45.40321 6.81265 27118 ft 306 kts 171°
2026-04-29 17:44 45.38255 6.81958 27114 ft 304 kts 170°
2026-04-29 17:45 45.36205 6.82646 27114 ft 301 kts 170°
2026-04-29 17:45 45.34853 6.83098 27115 ft 301 kts 170°
2026-04-29 17:45 45.32813 6.83777 27112 ft 301 kts 170°
2026-04-29 17:45 45.30775 6.84458 27114 ft 301 kts 170°
2026-04-29 17:46 45.28736 6.85139 27111 ft 301 kts 170°
2026-04-29 17:46 45.26701 6.85818 27115 ft 301 kts 170°
2026-04-29 17:46 45.24658 6.86497 27117 ft 301 kts 170°
2026-04-29 17:46 45.22617 6.87177 27114 ft 301 kts 170°
2026-04-29 17:47 45.20584 6.87854 27122 ft 300 kts 170°
2026-04-29 17:47 45.18545 6.88532 27126 ft 301 kts 170°
2026-04-29 17:47 45.16509 6.89207 27114 ft 301 kts 170°
2026-04-29 17:47 45.14474 6.89883 27125 ft 299 kts 170°
2026-04-29 17:48 45.12448 6.90556 27122 ft 298 kts 170°
2026-04-29 17:48 45.10453 6.91216 27123 ft 298 kts 170°
2026-04-29 17:48 45.08427 6.91887 27129 ft 299 kts 170°
2026-04-29 17:48 45.06386 6.92562 27133 ft 302 kts 170°
2026-04-29 17:49 45.04337 6.93240 27134 ft 304 kts 170°
2026-04-29 17:49 45.02277 6.93921 27131 ft 303 kts 170°
2026-04-29 17:49 45.00222 6.94600 27138 ft 304 kts 170°
2026-04-29 17:49 44.98161 6.95279 27122 ft 304 kts 170°
2026-04-29 17:50 44.96100 6.95959 27118 ft 303 kts 170°
2026-04-29 17:50 44.94049 6.96636 27113 ft 302 kts 170°
2026-04-29 17:50 44.92010 6.97307 27111 ft 301 kts 170°
2026-04-29 17:50 44.89972 6.97977 27109 ft 301 kts 170°
2026-04-29 17:51 44.87934 6.98647 27105 ft 300 kts 170°
2026-04-29 17:51 44.85902 6.99315 27108 ft 300 kts 170°
2026-04-29 17:51 44.83868 6.99983 27105 ft 300 kts 170°
2026-04-29 17:51 44.81839 7.00648 27104 ft 300 kts 170°
2026-04-29 17:52 44.79804 7.01301 27096 ft 299 kts 172°
2026-04-29 17:52 44.78454 7.01629 27095 ft 297 kts 174°
2026-04-29 17:52 44.75722 7.02269 27100 ft 298 kts 173°
2026-04-29 17:52 44.73674 7.02764 27096 ft 298 kts 173°
2026-04-29 17:53 44.71627 7.03252 27105 ft 299 kts 174°
2026-04-29 17:53 44.69569 7.03739 27103 ft 300 kts 174°
2026-04-29 17:53 44.67515 7.04229 27105 ft 300 kts 173°
2026-04-29 17:53 44.65487 7.04714 27106 ft 300 kts 173°
2026-04-29 17:54 44.63425 7.05205 27104 ft 300 kts 173°
2026-04-29 17:54 44.61367 7.05694 27106 ft 299 kts 174°
2026-04-29 17:54 44.59310 7.06180 27096 ft 299 kts 174°
2026-04-29 17:54 44.57259 7.06669 27105 ft 299 kts 173°
2026-04-29 17:55 44.55203 7.07157 27103 ft 300 kts 174°
2026-04-29 17:55 44.53142 7.07644 27101 ft 299 kts 174°
2026-04-29 17:55 44.51097 7.08130 27100 ft 298 kts 173°
2026-04-29 17:55 44.49049 7.08616 27103 ft 298 kts 174°
2026-04-29 17:56 44.47017 7.09094 26989 ft 302 kts 173°
2026-04-29 17:56 44.44945 7.09582 26628 ft 296 kts 174°
2026-04-29 17:56 44.42991 7.10050 26251 ft 280 kts 174°
2026-04-29 17:56 44.41077 7.10499 25888 ft 277 kts 174°
2026-04-29 17:57 44.39183 7.10943 25516 ft 275 kts 174°
2026-04-29 17:57 44.37299 7.11388 25164 ft 273 kts 174°
2026-04-29 17:57 44.35426 7.11830 24809 ft 276 kts 174°
2026-04-29 17:57 44.33508 7.12279 24446 ft 283 kts 173°
2026-04-29 17:58 44.31543 7.12741 24060 ft 287 kts 173°
2026-04-29 17:58 44.29586 7.13204 23677 ft 283 kts 173°
2026-04-29 17:58 44.27656 7.13658 23266 ft 279 kts 173°
2026-04-29 17:58 44.25752 7.14104 22889 ft 276 kts 173°
2026-04-29 17:59 44.23864 7.14547 22524 ft 275 kts 173°
2026-04-29 17:59 44.22006 7.14993 22162 ft 273 kts 171°
2026-04-29 17:59 44.20219 7.15836 22078 ft 270 kts 159°
2026-04-29 17:59 44.18459 7.16883 22086 ft 274 kts 159°
2026-04-29 18:00 44.16710 7.17899 22089 ft 277 kts 160°
2026-04-29 18:00 44.14927 7.18941 22087 ft 279 kts 159°
2026-04-29 18:00 44.13134 7.19998 22089 ft 280 kts 159°
2026-04-29 18:00 44.11338 7.21053 22092 ft 281 kts 159°
2026-04-29 18:01 44.09539 7.22107 22082 ft 280 kts 159°
2026-04-29 18:01 44.07751 7.23154 22077 ft 277 kts 159°
2026-04-29 18:01 44.05976 7.24194 22063 ft 276 kts 159°
2026-04-29 18:01 44.04211 7.25226 22071 ft 276 kts 159°
2026-04-29 18:02 44.02425 7.26269 22070 ft 282 kts 159°
2026-04-29 18:02 44.00589 7.27341 22081 ft 289 kts 159°
2026-04-29 18:02 43.98716 7.28435 22060 ft 293 kts 159°
2026-04-29 18:02 43.96832 7.29536 22060 ft 293 kts 159°
2026-04-29 18:03 43.94958 7.30629 22054 ft 292 kts 159°
2026-04-29 18:03 43.93082 7.31721 22054 ft 291 kts 159°
2026-04-29 18:03 43.91193 7.32820 21732 ft 296 kts 159°
2026-04-29 18:03 43.89360 7.33889 21341 ft 274 kts 159°
2026-04-29 18:04 43.87641 7.34890 20939 ft 263 kts 159°
2026-04-29 18:04 43.85968 7.35861 20551 ft 259 kts 159°
2026-04-29 18:04 43.84332 7.36809 20173 ft 256 kts 159°
2026-04-29 18:04 43.82764 7.37963 19790 ft 256 kts 145°
2026-04-29 18:05 43.81388 7.39507 19430 ft 254 kts 141°
2026-04-29 18:05 43.80006 7.41057 19081 ft 260 kts 142°
2026-04-29 18:05 43.78551 7.42675 18740 ft 276 kts 141°
2026-04-29 18:05 43.77024 7.44382 18417 ft 287 kts 141°
2026-04-29 18:06 43.75461 7.46132 18055 ft 290 kts 141°
2026-04-29 18:06 43.73904 7.47873 17665 ft 287 kts 141°
2026-04-29 18:06 43.72358 7.49598 17276 ft 285 kts 141°
2026-04-29 18:06 43.70819 7.51314 16885 ft 283 kts 142°
2026-04-29 18:07 43.69296 7.53023 16508 ft 281 kts 140°
2026-04-29 18:07 43.68027 7.55056 16078 ft 281 kts 123°
2026-04-29 18:07 43.67170 7.57468 15578 ft 278 kts 109°
2026-04-29 18:07 43.66543 7.59978 15094 ft 274 kts 109°
2026-04-29 18:08 43.65911 7.62455 14614 ft 272 kts 109°
2026-04-29 18:08 43.65285 7.64877 14142 ft 270 kts 109°
2026-04-29 18:08 43.64651 7.67342 13650 ft 268 kts 109°
2026-04-29 18:08 43.64028 7.69770 12934 ft 266 kts 109°
2026-04-29 18:09 43.63127 7.71884 12716 ft 255 kts 137°
2026-04-29 18:09 43.61518 7.72957 12325 ft 265 kts 171°
2026-04-29 18:09 43.59703 7.73171 11866 ft 258 kts 178°
2026-04-29 18:09 43.57946 7.73393 11413 ft 256 kts 172°
2026-04-29 18:10 43.56224 7.74026 10913 ft 257 kts 161°
2026-04-29 18:10 43.54547 7.75004 10434 ft 266 kts 157°
2026-04-29 18:10 43.52833 7.75990 9940 ft 266 kts 159°
2026-04-29 18:10 43.51109 7.76875 9397 ft 263 kts 160°
2026-04-29 18:11 43.49403 7.77739 8865 ft 260 kts 158°
2026-04-29 18:11 43.47718 7.78620 8337 ft 257 kts 157°
2026-04-29 18:11 43.46055 7.79495 7826 ft 254 kts 156°
2026-04-29 18:11 43.44419 7.80350 7344 ft 250 kts 156°
2026-04-29 18:12 43.42800 7.81192 6875 ft 247 kts 156°
2026-04-29 18:12 43.41116 7.81552 6369 ft 252 kts 186°
2026-04-29 18:12 43.39569 7.80473 5834 ft 255 kts 225°
2026-04-29 18:12 43.38786 7.78330 5315 ft 254 kts 263°
2026-04-29 18:13 43.38813 7.75918 4850 ft 251 kts 276°
2026-04-29 18:13 43.38877 7.73528 4385 ft 251 kts 270°
2026-04-29 18:13 43.38686 7.71145 3915 ft 251 kts 258°
2026-04-29 18:13 43.38082 7.68926 3772 ft 243 kts 243°
2026-04-29 18:14 43.37285 7.66833 3812 ft 251 kts 243°
2026-04-29 18:14 43.36532 7.64674 3815 ft 249 kts 246°
2026-04-29 18:14 43.35842 7.62529 3814 ft 248 kts 246°
2026-04-29 18:14 43.35132 7.60353 3863 ft 251 kts 245°
2026-04-29 18:15 43.34404 7.58169 3916 ft 252 kts 244°
2026-04-29 18:15 43.33670 7.55969 3963 ft 253 kts 245°
2026-04-29 18:15 43.32939 7.53767 3982 ft 255 kts 245°
2026-04-29 18:15 43.32201 7.51547 3983 ft 256 kts 245°
2026-04-29 18:16 43.31461 7.49324 3985 ft 256 kts 245°
2026-04-29 18:16 43.30720 7.47102 3984 ft 256 kts 245°
2026-04-29 18:16 43.29979 7.44873 3987 ft 256 kts 245°
2026-04-29 18:16 43.29236 7.42653 3984 ft 256 kts 245°
2026-04-29 18:17 43.28495 7.40431 3988 ft 256 kts 245°
2026-04-29 18:17 43.27867 7.38148 3978 ft 256 kts 259°
2026-04-29 18:17 43.27851 7.35726 3981 ft 254 kts 278°
2026-04-29 18:17 43.28100 7.33326 3985 ft 254 kts 279°
2026-04-29 18:18 43.28347 7.30925 3986 ft 254 kts 279°
2026-04-29 18:18 43.28583 7.28515 3985 ft 255 kts 278°
2026-04-29 18:18 43.28820 7.26099 3990 ft 255 kts 279°
2026-04-29 18:18 43.29058 7.23689 3986 ft 255 kts 279°
2026-04-29 18:19 43.29296 7.21272 3994 ft 255 kts 279°
2026-04-29 18:19 43.29532 7.18860 3990 ft 253 kts 279°
2026-04-29 18:19 43.29758 7.16541 3983 ft 236 kts 279°
2026-04-29 18:19 43.29968 7.14385 3983 ft 219 kts 279°
2026-04-29 18:20 43.30161 7.12405 3989 ft 203 kts 279°
2026-04-29 18:20 43.30342 7.10549 3999 ft 193 kts 279°
2026-04-29 18:20 43.30517 7.08746 3993 ft 186 kts 279°
2026-04-29 18:20 43.30688 7.06987 3896 ft 188 kts 279°
2026-04-29 18:21 43.30861 7.05211 3645 ft 186 kts 279°
2026-04-29 18:21 43.31048 7.03472 3388 ft 182 kts 285°
2026-04-29 18:21 43.31610 7.01957 3147 ft 176 kts 313°
2026-04-29 18:21 43.32520 7.00905 2918 ft 169 kts 336°
2026-04-29 18:22 43.33583 7.00266 2699 ft 167 kts 343°
2026-04-29 18:22 43.34655 6.99632 2478 ft 168 kts 342°
2026-04-29 18:22 43.35727 6.98995 2252 ft 167 kts 343°
2026-04-29 18:22 43.36791 6.98371 2048 ft 165 kts 346°
2026-04-29 18:23 43.37875 6.98074 2005 ft 156 kts
2026-04-29 18:23 43.38970 6.97890 2008 ft 160 kts 359°
2026-04-29 18:23 43.40060 6.97692 2009 ft 161 kts 359°
2026-04-29 18:23 43.41173 6.97493 2009 ft 161 kts 360°
2026-04-29 18:24 43.42289 6.97297 2001 ft 163 kts 358°
2026-04-29 18:24 43.43434 6.97095 2000 ft 163 kts 358°
2026-04-29 18:24 43.44544 6.96898 2000 ft 163 kts 358°
2026-04-29 18:24 43.45628 6.96702 1967 ft 144 kts 358°
2026-04-29 18:25 43.46568 6.96531 1794 ft 128 kts 359°
2026-04-29 18:25 43.47398 6.96385 1599 ft 112 kts 359°
2026-04-29 18:25 43.48119 6.96257 1435 ft 100 kts 360°
2026-04-29 18:25 43.48809 6.96138 1287 ft 101 kts 359°
2026-04-29 18:26 43.49508 6.96022 1122 ft 102 kts 358°
2026-04-29 18:26 43.50213 6.95894 976 ft 102 kts 355°
2026-04-29 18:26 43.50925 6.95746 840 ft 103 kts 356°
2026-04-29 18:26 43.51634 6.95615 612 ft 101 kts 356°
2026-04-29 18:27 43.52357 6.95476 481 ft 105 kts 354°
2026-04-29 18:27 43.53069 6.95368 348 ft 103 kts 357°
2026-04-29 18:27 43.53765 6.95264 175 ft 99 kts 354°
2026-04-29 18:27 43.54425 6.95144 35 ft 89 kts 355°
2026-04-29 18:28 43.54971 6.95052 12 ft 68 kts 354°
2026-04-29 18:28 43.55274 6.94998 13 ft 23 kts 351°
2026-04-29 18:28 43.55387 6.95012 14 ft 8 kts 73°
2026-04-29 18:28 43.55388 6.95134 14 ft 10 kts 136°
2026-04-29 18:29 43.55315 6.95164 14 ft 19 kts 171°
2026-04-29 18:29 43.55233 6.95178 14 ft 12 kts 172°
2026-04-29 18:29 43.55084 6.95207 14 ft 19 kts 173°
2026-04-29 18:29 43.55012 6.95218 14 ft 18 kts 171°
2026-04-29 18:30 43.54880 6.95243 14 ft 16 kts 175°
2026-04-29 18:30 43.54754 6.95265 14 ft 18 kts 173°
2026-04-29 18:30 43.54639 6.95290 14 ft 12 kts 135°
2026-04-29 18:30 43.54638 6.95360 14 ft 7 kts 84°
2026-04-29 18:31 43.54606 6.95380 14 ft 5 kts 172°
2026-04-29 18:31 43.54598 6.95381 14 ft 0 kts 174°